Wind_Speed
71 69 66 69 66 62 61 61 61 64 65 65 66 70 71 69 71 71 72 73 70 68 69 67 70 73 75 78 80 82 86 85 85 84 85 85 85 82 78 77 75 73 73 72
69 69 68 67 65 66 64 61 60 61 62 61 65 67 70 70 69 70 68 70 71 74 75 74 75 77 79 83 86 87 86 87 88 88 87 86 84 81 80 78 76 75 75 76
67 67 68 67 66 64 64 63 64 64 66 65 63 58 63 66 65 65 68 70 71 73 76 77 80 83 86 89 88 89 90 91 90 89 86 85 83 81 80 80 80 80 80 80
66 66 65 65 66 64 61 62 61 63 62 59 61 57 66 65 68 69 71 73 74 77 83 86 88 89 88 88 91 93 92 91 89 88 86 84 82 82 82 82 83 85 85 85
65 65 65 66 67 66 62 62 62 63 64 64 66 64 68 72 74 74 74 76 81 86 88 89 88 90 92 93 94 92 91 90 88 87 86 84 84 84 85 86 87 88 89 90
64 64 65 65 65 65 66 66 67 66 66 66 70 71 73 75 76 78 80 85 87 86 88 90 92 94 94 94 92 92 90 89 88 87 87 87 88 88 89 89 89 91 92 94
63 62 63 65 66 66 66 68 69 69 72 73 74 74 78 80 82 85 88 86 87 88 91 94 95 94 93 92 91 90 89 89 87 88 89 90 91 92 92 93 94 95 95 97
63 64 64 65 66 67 72 72 72 72 74 76 77 78 82 85 88 86 87 89 91 93 94 94 94 92 91 90 90 89 89 89 90 91 92 93 94 95 96 96 97 99 100 101
64 66 67 68 69 69 71 73 76 79 80 81 83 84 83 85 86 89 91 92 92 92 91 90 90 89 88 88 88 88 89 91 92 93 94 96 97 98 99 101 104 105 107 108
64 65 68 70 71 73 74 76 78 79 79 80 82 84 86 87 89 90 89 88 88 88 88 88 87 86 86 87 89 90 91 93 94 95 96 99 101 103 106 108 110 112 114 117
62 64 67 68 70 72 73 75 77 79 80 81 80 82 83 84 84 83 82 84 86 86 85 85 85 85 87 89 91 92 93 94 97 99 102 105 107 109 112 115 117 118 117 117
58 59 62 64 66 67 68 69 70 72 72 73 76 75 79 79 79 79 81 82 83 83 83 83 85 87 90 91 92 94 96 99 101 104 107 111 115 118 119 119 118 117 118 119
57 58 60 61 62 64 65 66 67 67 68 70 72 74 74 75 76 79 81 82 82 82 83 86 89 91 93 95 97 99 101 104 108 112 115 118 120 120 118 118 120 121 121 119
56 58 58 58 58 59 61 63 64 65 67 68 72 74 76 75 78 79 80 81 83 84 86 89 93 96 98 100 102 106 109 113 116 118 119 120 119 120 122 123 121 119 116 113
53 54 55 55 56 58 61 63 65 67 70 70 73 75 76 79 81 82 83 84 86 89 92 95 98 100 103 106 110 113 115 117 118 120 120 121 125 125 122 119 116 116 114 110
53 55 56 58 59 60 62 65 67 68 69 71 73 75 78 81 84 86 88 89 91 93 96 100 104 107 110 113 115 116 117 119 119 121 124 125 123 120 117 116 113 112 108 105
54 55 56 56 60 60 61 66 68 71 73 76 79 81 82 85 88 91 92 94 96 99 103 107 111 113 116 117 116 117 118 121 124 123 122 120 118 115 113 110 107 103 101 99
55 57 58 60 63 64 67 71 74 76 79 82 84 86 88 90 92 96 98 100 104 107 110 112 114 115 116 117 119 122 122 121 120 119 117 116 113 110 106 105 100 97 93 90
62 63 64 66 68 69 74 76 79 82 84 87 87 89 91 93 97 102 105 107 109 111 112 114 115 118 121 121 119 119 119 118 118 116 113 111 109 105 100 96 91 88 85 79
67 69 71 72 72 73 78 81 84 86 87 90 93 95 97 100 101 104 107 111 113 116 119 120 120 118 118 119 118 117 116 114 112 110 109 107 100 92 89 86 82 78 72 67
71 73 76 77 77 78 84 85 88 90 91 92 95 98 100 102 104 107 111 114 115 115 116 117 117 116 115 114 113 111 110 108 106 105 100 93 86 83 81 76 71 64 60 54
76 78 79 80 81 82 86 89 92 93 95 97 99 102 103 104 105 106 107 108 109 109 110 112 112 112 110 108 107 105 104 100 95 92 86 82 78 75 70 64 59 52 47 46
80 82 82 84 86 89 89 90 89 89 88 88 90 91 91 94 98 101 103 106 107 107 108 109 109 107 105 103 97 93 90 85 83 82 76 73 70 64 57 51 47 43 39 36
75 75 73 74 77 78 78 80 82 82 84 85 86 87 91 94 97 100 102 103 101 102 103 103 101 98 94 90 85 82 80 79 77 73 67 63 59 51 45 40 37 34 32 30
69 69 69 71 76 76 77 78 79 80 82 85 87 89 91 93 96 96 95 94 94 94 94 94 92 87 84 82 80 80 76 71 67 61 56 52 44 41 34 32 27 27 25 24
64 68 71 72 75 76 77 78 79 79 81 83 83 86 89 89 90 92 94 96 98 98 96 94 90 82 80 78 76 71 64 58 55 51 44 38 34 29 26 22 21 19 20 20
Wind_Direction
228 231 235 238 239 242 244 246 249 252 256 259 262 266 266 269 271 273 275 278 281 282 282 283 287 288 289 290 290 291 293 295 296 297 297 297 298 299 298 297 295 294 293 292
229 231 235 237 240 242 244 244 249 255 256 261 264 266 268 269 270 273 275 277 279 283 288 288 288 288 287 289 292 293 294 296 296 296 297 298 298 296 296 295 294 293 292 291
228 233 236 239 241 244 247 250 253 256 260 265 265 264 267 270 273 276 277 279 283 285 285 285 286 287 289 291 293 294 295 296 297 297 297 297 296 296 295 295 294 293 292 290
229 233 236 239 242 245 250 253 255 256 259 261 262 264 269 273 274 276 279 281 281 282 283 285 287 289 290 291 293 294 295 296 296 296 295 295 295 294 293 292 292 292 292 292
231 234 237 241 244 246 247 251 252 257 259 260 261 264 267 271 274 277 277 278 280 283 284 286 287 289 292 292 293 293 294 294 294 294 293 293 292 291 292 293 294 293 292 292
234 236 238 242 245 248 250 251 253 255 258 260 263 267 268 270 272 274 277 280 282 283 284 287 289 290 289 291 292 293 293 293 292 292 292 292 293 294 293 292 292 292 291 291
236 240 243 245 245 247 250 253 255 258 258 260 262 265 267 270 273 275 278 280 282 284 286 287 287 287 289 290 291 291 292 292 292 291 292 292 293 293 294 293 292 292 292 291
239 243 245 248 250 250 249 252 254 256 259 262 265 266 268 273 276 278 280 282 284 285 285 285 286 288 290 291 291 291 291 291 291 293 293 293 293 293 293 293 292 291 290 289
240 244 247 250 253 255 256 257 259 260 262 265 268 271 272 275 277 279 281 282 283 284 285 285 287 288 290 289 289 289 288 289 291 292 292 292 293 293 292 292 291 290 291 291
243 246 249 252 254 257 259 262 263 265 266 268 270 273 275 276 277 279 280 282 282 282 283 285 287 287 287 286 287 288 291 292 292 292 293 293 293 293 293 293 294 294 293 291
248 251 254 257 258 260 262 264 265 267 268 270 271 272 274 275 276 279 280 280 281 284 285 286 287 288 287 288 290 292 292 292 293 293 293 293 294 294 294 293 292 291 291 291
254 257 260 262 263 264 265 265 265 266 268 270 271 272 274 277 279 281 279 281 283 285 286 287 287 287 288 289 290 290 291 292 293 293 293 293 293 293 293 293 294 293 292 292
257 257 258 260 262 264 265 267 269 271 272 273 275 276 276 278 278 279 281 282 283 285 286 287 287 288 288 290 291 292 292 292 292 292 292 294 295 296 296 295 295 295 296 295
256 258 260 262 264 265 267 269 271 272 273 275 276 276 277 278 278 280 281 284 285 286 286 287 288 289 291 291 292 292 292 293 294 295 296 296 297 296 297 298 298 298 298 298
258 261 263 265 266 268 270 271 271 272 274 275 276 279 280 281 282 282 284 286 287 288 289 290 290 290 291 291 292 294 295 296 296 296 296 297 298 299 300 301 302 301 301 301
261 262 264 266 267 269 272 273 275 276 277 277 278 279 280 282 284 286 287 288 288 289 289 289 289 290 292 293 294 295 295 295 297 297 297 298 299 301 303 304 303 302 302 303
265 266 268 270 271 272 273 275 276 277 278 279 280 281 283 284 285 286 287 287 287 288 289 290 291 292 293 294 294 295 296 296 297 298 299 301 302 304 304 303 303 303 303 303
267 268 270 271 273 275 276 277 278 279 281 281 282 284 285 286 287 287 288 289 289 290 290 292 292 292 293 293 294 295 296 297 299 300 301 302 303 304 305 305 304 303 303 302
268 270 271 272 273 275 276 277 279 280 282 283 284 285 286 287 288 289 289 290 290 290 290 290 290 291 292 294 295 297 298 300 301 301 302 304 305 305 304 303 303 303 304 306
273 274 275 275 277 278 279 281 282 283 284 285 286 287 288 288 289 289 290 290 290 291 291 292 293 293 294 296 298 299 300 300 301 303 304 304 303 302 302 302 304 306 307 304
272 274 276 278 280 281 282 283 283 283 284 285 286 287 287 287 288 288 288 289 290 290 291 292 294 295 296 298 298 299 299 300 301 302 302 302 302 302 303 304 307 307 305 305
276 277 279 280 280 280 280 282 283 284 286 287 287 287 288 289 289 289 288 288 290 292 293 294 295 296 297 297 297 298 299 300 300 300 302 302 303 303 304 308 307 306 306 307
278 279 280 282 283 282 284 284 285 286 287 288 287 288 288 288 288 288 289 290 292 294 295 295 295 295 296 297 299 299 300 300 301 301 302 302 302 305 309 306 306 307 310 313
279 281 283 285 284 284 285 286 287 288 289 291 291 290 289 289 289 290 290 292 294 293 292 293 295 296 298 300 301 302 301 301 302 301 303 302 304 308 306 306 307 311 312 312
284 286 287 285 286 288 289 290 291 292 292 291 291 291 290 290 290 290 291 292 293 296 298 299 300 302 301 301 302 301 301 303 303 301 302 305 308 306 308 308 313 312 317 322
289 288 289 288 289 290 291 291 291 292 291 291 291 291 293 294 296 296 298 299 299 300 300 301 303 303 303 302 302 301 302 302 300 301 306 306 305 306 309 314 317 332 337 346
Height
10807 10815 10817 10823 10830 10834 10838 10842 10844 10843 10846 10849 10848 10843 10844 10847 10842 10842 10840 10836 10832 10826 10826 10828 10824 10813 10805 10800 10796 10793 10788 10782 10777 10772 10767 10761 10756 10750 10745 10739 10735 10730 10725 10721
10799 10805 10812 10816 10820 10826 10829 10832 10833 10835 10838 10838 10836 10833 10830 10834 10832 10831 10828 10823 10818 10813 10810 10809 10806 10801 10794 10787 10781 10776 10772 10766 10760 10754 10750 10744 10738 10733 10727 10722 10717 10713 10708 10703
10792 10798 10803 10808 10813 10818 10820 10822 10825 10827 10828 10829 10827 10824 10817 10819 10821 10818 10814 10810 10806 10799 10794 10790 10787 10783 10778 10771 10764 10759 10754 10749 10744 10738 10731 10725 10719 10713 10707 10701 10696 10691 10687 10682
10786 10791 10796 10800 10804 10809 10810 10812 10814 10817 10819 10818 10817 10822 10804 10808 10806 10806 10803 10798 10793 10787 10780 10775 10769 10765 10760 10755 10750 10744 10738 10732 10726 10719 10713 10707 10702 10696 10690 10684 10678 10670 10664 10659
10779 10784 10788 10791 10795 10798 10800 10803 10805 10807 10808 10809 10802 10810 10795 10793 10792 10793 10790 10786 10779 10773 10766 10759 10752 10747 10743 10737 10732 10727 10721 10714 10708 10702 10696 10691 10684 10678 10671 10664 10658 10651 10643 10636
10770 10775 10778 10782 10785 10788 10791 10792 10795 10796 10795 10797 10791 10793 10788 10783 10780 10777 10774 10769 10763 10757 10750 10743 10738 10732 10725 10721 10715 10709 10701 10694 10689 10682 10676 10669 10662 10656 10651 10645 10639 10631 10623 10614
10763 10767 10769 10772 10776 10779 10780 10780 10782 10784 10783 10782 10780 10780 10772 10769 10765 10762 10758 10752 10747 10741 10734 10727 10720 10714 10709 10702 10696 10689 10682 10674 10668 10661 10654 10649 10643 10636 10630 10622 10615 10608 10602 10593
10756 10758 10760 10762 10765 10768 10768 10768 10769 10771 10769 10768 10765 10764 10759 10753 10748 10745 10739 10735 10730 10724 10715 10708 10701 10695 10690 10684 10676 10669 10662 10655 10648 10641 10635 10628 10620 10612 10604 10597 10591 10584 10576 10568
10747 10748 10750 10752 10753 10755 10755 10755 10754 10755 10756 10755 10750 10746 10743 10736 10733 10727 10723 10718 10712 10704 10695 10689 10684 10679 10673 10665 10657 10650 10643 10637 10631 10623 10614 10605 10596 10589 10581 10572 10563 10556 10547 10538
10737 10739 10739 10740 10742 10742 10742 10740 10739 10738 10740 10738 10735 10730 10724 10721 10715 10710 10706 10700 10691 10682 10678 10674 10669 10663 10655 10646 10638 10631 10625 10618 10609 10600 10591 10582 10571 10562 10553 10544 10535 10525 10515 10504
10728 10729 10727 10729 10729 10729 10729 10726 10725 10722 10721 10721 10720 10713 10706 10702 10698 10694 10687 10677 10670 10667 10662 10656 10649 10641 10632 10624 10618 10612 10603 10594 10585 10575 10565 10554 10545 10535 10526 10516 10505 10494 10483 10469
10718 10718 10716 10716 10715 10714 10712 10710 10708 10706 10705 10703 10699 10698 10688 10685 10681 10676 10665 10660 10656 10650 10644 10637 10628 10620 10613 10606 10599 10591 10582 10572 10561 10550 10540 10528 10518 10508 10497 10484 10470 10458 10447 10435
10706 10705 10703 10702 10702 10699 10697 10695 10693 10692 10689 10685 10682 10676 10674 10670 10663 10654 10648 10644 10639 10634 10626 10617 10607 10597 10591 10585 10577 10568 10557 10546 10536 10525 10513 10500 10488 10476 10464 10450 10436 10422 10410 10397
10692 10691 10690 10690 10689 10686 10683 10682 10680 10677 10673 10671 10663 10658 10652 10652 10645 10638 10633 10627 10622 10616 10607 10597 10586 10577 10570 10560 10551 10541 10529 10518 10506 10492 10480 10469 10456 10444 10431 10417 10403 10389 10373 10360
10680 10678 10678 10678 10676 10673 10670 10667 10665 10661 10656 10654 10648 10642 10635 10628 10624 10620 10615 10610 10603 10594 10584 10573 10563 10554 10545 10536 10525 10513 10501 10487 10475 10464 10451 10438 10425 10411 10398 10383 10368 10353 10338 10325
10668 10666 10666 10665 10663 10662 10658 10652 10648 10645 10640 10636 10633 10626 10619 10612 10607 10600 10594 10588 10580 10571 10561 10549 10538 10530 10519 10509 10497 10485 10473 10460 10448 10435 10422 10408 10396 10382 10367 10352 10336 10321 10309 10295
10656 10655 10654 10653 10648 10648 10646 10637 10633 10628 10623 10618 10612 10607 10604 10596 10587 10578 10571 10564 10556 10547 10537 10525 10514 10502 10491 10480 10468 10457 10446 10433 10419 10406 10392 10379 10365 10354 10340 10325 10309 10295 10281 10269
10644 10643 10642 10640 10636 10634 10629 10623 10617 10611 10605 10598 10593 10588 10582 10575 10565 10554 10547 10541 10531 10521 10509 10497 10486 10474 10463 10452 10442 10430 10418 10405 10392 10377 10363 10349 10338 10327 10312 10297 10282 10269 10259 10246
10630 10629 10627 10623 10622 10619 10610 10606 10600 10593 10588 10578 10574 10568 10561 10554 10547 10530 10520 10512 10503 10493 10482 10470 10459 10448 10437 10427 10414 10402 10389 10376 10362 10349 10337 10323 10312 10301 10288 10272 10260 10248 10238 10228
10615 10612 10609 10606 10606 10602 10592 10585 10579 10574 10570 10561 10553 10546 10538 10529 10522 10510 10496 10482 10469 10457 10447 10438 10427 10416 10406 10397 10387 10375 10363 10350 10336 10324 10312 10300 10289 10278 10266 10252 10243 10232 10221 10210
10597 10594 10590 10589 10587 10585 10573 10568 10560 10552 10547 10541 10533 10524 10514 10504 10494 10485 10472 10458 10444 10432 10420 10411 10401 10391 10380 10370 10360 10348 10336 10323 10312 10301 10289 10278 10267 10257 10245 10234 10225 10216 10204 10194
10580 10577 10573 10570 10567 10563 10552 10543 10536 10530 10525 10517 10509 10498 10488 10477 10466 10454 10441 10429 10416 10407 10398 10387 10375 10364 10354 10344 10335 10324 10313 10303 10291 10278 10267 10257 10247 10237 10229 10220 10209 10201 10192 10183
10561 10555 10555 10549 10542 10534 10531 10522 10516 10507 10501 10493 10483 10474 10464 10451 10437 10424 10414 10402 10394 10385 10374 10361 10350 10339 10329 10319 10313 10301 10289 10279 10269 10258 10248 10239 10228 10222 10215 10205 10196 10189 10183 10175
10538 10537 10535 10527 10515 10510 10507 10500 10493 10486 10478 10469 10459 10447 10434 10422 10409 10398 10388 10381 10373 10361 10349 10338 10327 10315 10304 10295 10285 10275 10267 10258 10249 10238 10231 10222 10215 10209 10202 10195 10188 10181 10175 10170
10523 10520 10512 10503 10496 10493 10486 10478 10470 10462 10453 10442 10432 10422 10409 10397 10385 10375 10367 10358 10348 10336 10324 10312 10300 10291 10281 10273 10263 10254 10246 10239 10229 10222 10217 10210 10205 10198 10193 10187 10182 10177 10172 10166
10506 10498 10492 10484 10477 10474 10467 10458 10449 10439 10427 10418 10408 10393 10380 10372 10360 10348 10338 10329 10316 10306 10297 10284 10276 10268 10259 10250 10242 10234 10229 10223 10215 10209 10206 10200 10195 10191 10186 10182 10179 10175 10169 10164